Location: Molveno
(46.1500°N, 10.9667°E)
Time: 17:10:15
(UTC+00:00)

Cosmos 44 - Pass Details

Date: 05 July 2020
Orbit: 586 x 775 km, 65.1° (Epoch: 10 August)

Event Time Altitude Azimuth Distance (km) Brightness Sun altitude
Exits shadow 22:05:17 28° 106° (ESE) 1,118 4.1 -19.1°
Drops below altitude 10° 22:08:43 10° 56° (NE) 1,954 5.8 -19.3°
Sets 22:11:13 0° 45° (NE) 2,886 6.9 -19.4°
